Location: Bishopstone
(51.0167°N, 1.9000°W)
Time: 22:45:12
(UTC+00:00)

EO 1 Delta rocket - Pass Details

Date: 16 September 2019
Orbit: 697 x 1792 km, 95.4° (Epoch: 16 October)

Event Time Altitude Azimuth Distance (km) Brightness Sun altitude
Rises 19:22:26 0° 163° (SSE) 4,254 7.5 -10.4°
Reaches altitude 10° 19:25:24 10° 162° (SSE) 3,126 6.8 -10.9°
Maximum altitude 19:32:23 78° 77° (ENE) 1,011 4.5 -11.9°
Drops below altitude 10° 19:37:52 10° 353° (N) 2,478 7.0 -12.7°
Sets 19:40:00 0° 352° (N) 3,322 7.7 -13.0°
